Regional Weather Roundup
Issued by NWS

Home | Current Version | Previous Version | Text Only | Print | Product List | Glossary On
Versions: 1 2 3 4 5 6 7 8 9 10 11 12 13 14 15 16 17 18 19 20 21 22 23 24 25 26 27 28 29 30 31 32 33 34 35 36 37 38 39 40 41 42 43 44 45 46 47 48 49 50
673
ASUS44 KJAN 260003
RWRMS

MISSISSIPPI HOURLY WEATHER ROUNDUP
NATIONAL WEATHER SERVICE JACKSON MS
600 PM CST TUE NOV 25 2014

NOTE: "FAIR: INDICATES FEW OR NO CLOUDS BELOW 12,000 FEET WITH NO
SIGNIFICANT WEATHER AND/OR OBSTRUCTIONS TO VISIBILITY.

MSZ001>002-007>008-010>013-018>021-025>028-034>036-260100-
NORTHWEST MISSISSIPPI

CITY           SKY/WX    TMP DP  RH WIND       PRES   REMARKS
CLARKSDALE     FAIR      41  32  70 CALM      30.21S
CLEVELAND      FAIR      43  32  64 CALM      30.20S
GREENWOOD      MOCLDY    42  28  57 CALM      30.21R
6HR MIN TEMP:  42; 6HR MAX TEMP:  51;

GREENVILLE     PTCLDY    47  30  51 W5        30.20R
6HR MIN TEMP:  46; 6HR MAX TEMP:  51;

GRENADA        FAIR      39  28  65 CALM      30.21R
OLIVE BRANCH   MOCLDY    39  28  65 NW5       30.19R
OXFORD         FAIR      39  25  56 CALM      30.21R
TUNICA         PTCLDY    45  28  53 NW5       30.21R
$$

MSZ003>006-009-014>017-022>024-029>033-037>039-260100-
NORTHEAST MISSISSIPPI

CITY           SKY/WX    TMP DP  RH WIND       PRES   REMARKS
COLUMBUS AFB   CLOUDY    45  31  56 NW5       30.16R
6HR MIN TEMP:  45; 6HR MAX TEMP:  51;

CORINTH        FAIR      43  30  61 NW5       30.18R
GOLDN TRIANGLE CLEAR     45  30  57 CALM      30.16R
STARKVILLE     FAIR      45  32  61 NW3       30.16S
TUPELO         CLOUDY    45  27  49 NW3       30.17R
6HR MIN TEMP:  45; 6HR MAX TEMP:  50;

$$

MSZ040-058-260100-
CENTRAL MISSISSIPPI

CITY           SKY/WX    TMP DP  RH WIND       PRES   REMARKS
JACKSON INTL   CLOUDY    47  27  45 NW7       30.19S
6HR MIN TEMP:  47; 6HR MAX TEMP:  52;

JACKSON HAWKNS CLOUDY    46  28  49 NW6       30.19S
6HR MIN TEMP:  45; 6HR MAX TEMP:  52;

MERIDIAN KEY   CLOUDY    48  27  44 NW8       30.17R
6HR MIN TEMP:  48; 6HR MAX TEMP:  58;

MERIDIAN NAS   CLOUDY    48  29  47 NW8       30.16S
6HR MIN TEMP:  48; 6HR MAX TEMP:  58;

RAYMOND        FAIR      46  41  81 NW3       30.20R
VICKSBURG      PTCLDY    41  31  67 N3        30.21S
6HR MIN TEMP:  41; 6HR MAX TEMP:  52;

$$

MSZ059>079-260100-
SOUTH MISSISSIPPI

CITY           SKY/WX    TMP DP  RH WIND       PRES   REMARKS
BROOKHAVEN     FAIR      46  34  61 CALM      30.20S
COLUMBIA       MOCLDY    48  32  53 MISG        N/A
HATTIESBURG    CLOUDY    51  31  46 N9        30.16R
6HR MIN TEMP:  51; 6HR MAX TEMP:  57;

MCCOMB         CLOUDY    47  32  56 NW8       30.19R
6HR MIN TEMP:  47; 6HR MAX TEMP:  55;

NATCHEZ        MOCLDY    45  30  57 CALM      30.22R
6HR MIN TEMP:  45; 6HR MAX TEMP:  52;

PINE BELT      CLOUDY    48  28  46 N7        30.15F
6HR MIN TEMP:  48; 6HR MAX TEMP:  55;

$$

MSZ080>082-260100-
COASTAL MISSISSIPPI

CITY           SKY/WX    TMP DP  RH WIND       PRES   REMARKS
BAY ST LOUIS   MOCLDY    50  36  57 CALM      30.14S
BILOXI         CLOUDY    54  35  48 VRB6      30.16R
6HR MIN TEMP:  54; 6HR MAX TEMP:  61;

PASCAGOULA     CLOUDY    54  35  48 NW6       30.13R
6HR MIN TEMP:  54; 6HR MAX TEMP:  63;

GULFPORT       CLOUDY    52  36  54 NW5       30.15R
6HR MIN TEMP:  52; 6HR MAX TEMP:  60;

$$



USA.gov is the U.S. government's official web portal to all federal, state and local government web resources and services.